Weather History for Mobile Downtown, AL

Change the Weather History Date:

Tuesday, March 26, 2013

  Actual Average Record
Temperature  
Mean Temperature 46 °F -  
Max Temperature 57 °F 68 °F 82 °F (2011)
Min Temperature 35 °F 50 °F 33 °F (2014)
Degree Days  
Heating Degree Days 19    
Moisture  
Dew Point 25 °F    
Average Humidity 48    
Maximum Humidity 70    
Minimum Humidity 28    
Precipitation  
Precipitation 0.00 in - - ()
Sea Level Pressure  
Sea Level Pressure 30.32 in    
Wind  
Wind Speed 10 mph (NNW)    
Max Wind Speed 17 mph    
Max Gust Speed 28 mph    
Visibility 10 miles    
Events      
Averages and records for this station are not official NWS values.
T = Trace of Precipitation, MM = Missing Value Source: NWS Daily Summary

Daily Weather History Graph

Daily Weather History Graph

Search for Another Location

Airport:

Trip Planner

Search our weather history database for the weather conditions in past years. The results will help you decide how hot, cold, wet, or windy it might be!

Date:

Astronomy

Mar. 26, 2013 Rise Set
Actual Time 6:48 AM CDT 7:07 PM CDT
Civil Twilight 6:24 AM CDT 7:31 PM CDT
Nautical Twilight 5:56 AM CDT 8:00 PM CDT
Astronomical Twilight 5:27 AM CDT 8:28 PM CDT
Moon 6:43 PM CDT 6:03 AM CDT
Length of Visible Light 13h 07m
Length of Day
12h 19m
Waxing Gibbous, 99% of the Moon is Illuminated
Mar 26
Waxing Gibbous
Mar 27
Full
Apr 2
Last Quarter
Apr 10
New
Apr 18
First Quarter

Hourly Weather History & Observations

Time (CDT) Temp. Windchill Dew Point Humidity Pressure Visibility Wind Dir Wind Speed Gust Speed Precip Events Conditions
12:53 AM 43.0 °F 36.8 °F 26.1 °F 51% 30.27 in 10.0 mi North 11.5 mph 19.6 mph N/A   Clear
1:53 AM 39.9 °F 33.9 °F 25.0 °F 55% 30.27 in 10.0 mi NNW 9.2 mph - N/A   Clear
2:53 AM 37.0 °F 32.4 °F 25.0 °F 62% 30.28 in 10.0 mi NW 5.8 mph - N/A   Clear
3:22 AM 35.6 °F 29.9 °F 26.6 °F 70% 30.28 in 10.0 mi NW 6.9 mph - N/A   Clear
3:53 AM 37.0 °F 32.4 °F 26.1 °F 65% 30.29 in 10.0 mi NW 5.8 mph - N/A   Clear
4:53 AM 37.0 °F 30.4 °F 26.1 °F 65% 30.30 in 10.0 mi NW 9.2 mph - N/A   Clear
5:53 AM 36.0 °F 29.0 °F 25.0 °F 64% 30.32 in 10.0 mi NW 9.2 mph - N/A   Clear
6:53 AM 35.1 °F 30.1 °F 25.0 °F 67% 30.33 in 10.0 mi NW 5.8 mph - N/A   Clear
7:53 AM 39.0 °F 32.8 °F 26.1 °F 60% 30.35 in 10.0 mi NW 9.2 mph - N/A   Clear
8:53 AM 43.0 °F 36.0 °F 23.0 °F 45% 30.36 in 10.0 mi NNW 13.8 mph - N/A   Clear
9:53 AM 45.0 °F 37.9 °F 21.9 °F 40% 30.37 in 10.0 mi NW 16.1 mph 27.6 mph N/A   Clear
10:53 AM 46.9 °F - 23.0 °F 39% 30.36 in 10.0 mi NW 10.4 mph 21.9 mph N/A   Clear
11:53 AM 48.9 °F - 23.0 °F 36% 30.35 in 10.0 mi NW 11.5 mph 23.0 mph N/A   Clear
12:53 PM 52.0 °F - 23.0 °F 32% 30.33 in 10.0 mi NW 12.7 mph - N/A   Clear
1:53 PM 55.0 °F - 24.1 °F 30% 30.30 in 10.0 mi North 17.3 mph 20.7 mph N/A   Clear
2:53 PM 55.9 °F - 23.0 °F 28% 30.29 in 10.0 mi North 13.8 mph 23.0 mph N/A   Clear
3:53 PM 55.9 °F - 23.0 °F 28% 30.27 in 10.0 mi NNW 17.3 mph 25.3 mph N/A   Clear
4:53 PM 57.0 °F - 24.1 °F 28% 30.26 in 10.0 mi North 11.5 mph 21.9 mph N/A   Clear
5:53 PM 55.0 °F - 24.1 °F 30% 30.27 in 10.0 mi North 15.0 mph 21.9 mph N/A   Clear
6:53 PM 52.0 °F - 25.0 °F 35% 30.29 in 10.0 mi NNW 15.0 mph - N/A   Clear
7:53 PM 48.0 °F - 26.1 °F 42% 30.32 in 10.0 mi North 8.1 mph - N/A   Clear
8:53 PM 46.0 °F 42.5 °F 27.0 °F 47% 30.35 in 10.0 mi NNW 6.9 mph - N/A   Clear
9:53 PM 44.1 °F 40.1 °F 28.9 °F 55% 30.37 in 10.0 mi NNW 6.9 mph - N/A   Clear
10:53 PM 41.0 °F 37.1 °F 28.9 °F 62% 30.38 in 10.0 mi North 5.8 mph - N/A   Clear
11:53 PM 45.0 °F 40.1 °F 28.9 °F 53% 30.39 in 10.0 mi North 9.2 mph 16.1 mph N/A   Clear